Location: Czekanka
(50.4925°N, 19.2643°E)
Time: 00:40:26
(UTC+00:00)

ADEOS II - Pass Details

Date: 22 September 2024
Orbit: 795 x 798 km, 98.7° (Epoch: 09 October)

Event Time Altitude Azimuth Distance (km) Brightness Sun altitude
Rises 23:34:56 0° 31° (NNE) 3,310 6.2 -38.1°
Reaches altitude 10° 23:38:44 10° 59° (ENE) 2,373 5.0 -37.9°
Enters shadow 23:40:21 13° 77° (ENE) 2,193 4.6 -37.8°
